Home   Weather   Korneuburg   Past weeks

Flag for Austria Past Weather in Korneuburg, Lower Austria, Austria — Yesterday and Last 2 Weeks

Now
54 °F

Passing clouds.


Feels Like: 53 °F
Forecast: 37 / 69 °F
Wind: 5 mph from East

Location: Wien / Hohe Warte

Current Time: Apr 24, 2017 at 1:31:51 pm

Latest Report: Apr 24, 2017 at 12:00 pm


Visibility: 31 mi

Pressure: 30.12 "Hg

Humidity: 46%

Dew Point: 34 °F

Location of KorneuburgLocation

Past Weather in Korneuburg — Graph

°F

Korneuburg Temperature Yesterday

Maximum temperature yesterday: 51 °F (at 12:00 pm)
Minimum temperature yesterday: 42 °F (at 7:00 am)
Average temperature yesterday: 47 °F

High & Low Weather Summary for the Past Weeks

 TemperatureHumidityPressure
High72 °F (Apr 10, 5:00 pm)97% (Apr 17, 11:00 pm)30.50 "Hg (Apr 17, 11:00 pm)
Low34 °F (Apr 19, 8:00 am)35% (Apr 16, 12:00 pm)29.80 "Hg (Apr 13, 6:00 am)
Average49 °F64%30.09 "Hg
* Reported Apr 9 12:00 pm — Apr 24 12:00 pm, Korneuburg, Weather by CustomWeather, © 2017

Note: Actual official high and low records may vary slightly from our data, if they occured in-between our weather recording intervals... More about our weather records

Advertising

Korneuburg Weather History for the Previous 24 Hours

Scroll right to see more
 ConditionsComfort  
Time TempWeatherWind HumidityBarometerVisibility
12:00 pm
Mon, Apr 24
54 °FPassing clouds.5 mph46%30.12 "Hg31 mi
11:00 am52 °FPassing clouds.2 mph45%30.15 "Hg31 mi
10:00 am49 °FScattered clouds.3 mph50%30.16 "Hg31 mi
9:00 am48 °FPassing clouds.1 mph48%30.18 "Hg31 mi
8:00 am46 °FPassing clouds.3 mph51%30.19 "Hg28 mi
7:00 am40 °FPassing clouds.2 mph68%30.20 "Hg28 mi
6:00 am38 °FChilly.5 mph69%30.20 "HgN/A
5:00 am38 °FChilly.5 mph68%30.20 "HgN/A
4:00 am39 °FChilly.5 mph67%30.21 "HgN/A
3:00 am39 °FChilly.5 mph66%30.21 "HgN/A
2:00 am41 °FPassing clouds.5 mph60%30.22 "Hg19 mi
1:00 am43 °FQuite cool.5 mph55%30.22 "HgN/A
12:00 am44 °FQuite cool.5 mph49%30.22 "HgN/A
11:00 pm
Sun, Apr 23
47 °FPassing clouds.5 mph47%30.20 "Hg19 mi
10:00 pm48 °FOvercast.5 mph44%30.19 "Hg19 mi
9:00 pm48 °FOvercast.3 mph46%30.17 "Hg25 mi
8:00 pm49 °FOvercast.5 mph46%30.14 "Hg31 mi
7:00 pm51 °FOvercast.5 mph38%30.12 "Hg31 mi
6:00 pm51 °FOvercast.2 mph44%30.11 "Hg37 mi
5:00 pm51 °FOvercast.3 mph48%30.11 "Hg37 mi
4:00 pm50 °FPartly sunny.5 mph51%30.11 "Hg37 mi
3:00 pm49 °FPartly sunny.3 mph57%30.13 "Hg37 mi
2:00 pm50 °FCool.6 mph47%30.13 "HgN/A
1:00 pm51 °FPartly sunny.7 mph48%30.12 "Hg40 mi
Weather by CustomWeather, © 2017

See weather overviewHow to use our weather pages